Weather reports worldwide

Advertisment
Hawarden, United Kingdom (3321): temperature & dewpoint: 13.01.2019 09:00:00 - 19.01.2019 09:00:00 (GMT)Hawarden, United Kingdom (3321): temperature -20cm & temperature -100cm: 13.01.2019 09:00:00 - 19.01.2019 09:00:00 (GMT)Hawarden, United Kingdom (3321): wind speed & gusts: 13.01.2019 09:00:00 - 19.01.2019 09:00:00 (GMT)Hawarden, United Kingdom (3321): wind direction: 13.01.2019 09:00:00 - 19.01.2019 09:00:00 (GMT)Hawarden, United Kingdom (3321): reduced air pressure: 13.01.2019 09:00:00 - 19.01.2019 09:00:00 (GMT)Hawarden, United Kingdom (3321): visibility: 13.01.2019 09:00:00 - 19.01.2019 09:00:00 (GMT)Hawarden, United Kingdom (3321): sunshine duration: 13.01.2019 09:00:00 - 19.01.2019 09:00:00 (GMT)Hawarden, United Kingdom (3321): precipitation: 13.01.2019 09:00:00 - 19.01.2019 09:00:00 (GMT)
Date & Time tt [°C] td [°C] tt -20cm [°C] tt -100cm [°C] ff [km/h] ff [kn] fx [km/h] fx [kn] dd ppp [hPa] vv [km] sd [min] rr [mm]
19.01.2019 09:00:00 4,0 3,0 - - 13 7 - - SE - 8 - -
19.01.2019 08:00:00 - - - - - - - - - - - - -
19.01.2019 07:00:00 3,9 2,5 - - 15 8 - - SSE 1006,5 15 0 0,0
19.01.2019 06:00:00 3,7 2,4 - - 13 7 - - SE 1006,4 17 0 0,0
19.01.2019 05:00:00 3,3 2,2 - - 13 7 - - SSE 1006,6 17 0 0,0
19.01.2019 04:00:00 3,1 1,9 - - 15 8 - - SSE 1007,0 14 0 0,0
19.01.2019 03:00:00 3,0 1,7 - - 15 8 - - SSE 1007,3 29 0 0,0
19.01.2019 02:00:00 2,9 1,5 - - 22 12 - - SSE 1007,5 21 0 0,0
19.01.2019 01:00:00 2,6 1,2 - - 21 11 - - SSE 1007,9 27 0 0,0
19.01.2019 00:00:00 2,6 1,0 - - 21 11 - - SSE 1008,3 35 - 0,0
18.01.2019 23:00:00 2,4 0,7 - - 29 16 - - SSE 1007,9 30 0 0,0
18.01.2019 22:00:00 3,0 1,3 - - 26 14 - - SSE 1008,3 30 0 0,0
18.01.2019 21:00:00 1,7 1,1 - - 18 10 - - SSE 1008,5 10 0 0,0
18.01.2019 20:00:00 1,6 0,8 - - 28 15 - - SSE 1008,8 10 0 0,0
18.01.2019 19:00:00 1,9 1,3 - - 16 9 - - SSE 1009,1 10 0 0,2
18.01.2019 18:00:00 2,9 1,7 - - 31 17 - - SSE 1009,2 10 0 0,0
18.01.2019 17:00:00 3,3 2,1 - - 22 12 - - SE 1009,2 10 0 0,0
18.01.2019 16:00:00 3,0 2,0 - - 24 13 - - SSE 1009,6 10 0 0,0
18.01.2019 15:00:00 3,5 2,4 - - 31 17 - - SSE 1009,7 10 0 0,0
18.01.2019 14:00:00 3,3 2,5 - - 26 14 - - SSE 1010,3 10 6 0,2
18.01.2019 13:00:00 2,0 1,1 - - 29 16 - - SSE 1011,4 10 0 0,6
18.01.2019 12:00:00 1,7 0,4 - - 22 12 - - SSE 1012,2 8 0 0,4
18.01.2019 11:00:00 1,8 -1,1 - - 16 9 - - SSE 1013,1 10 0 0,0
18.01.2019 10:00:00 1,1 -1,6 - - 15 8 - - SSE 1013,3 10 0 0,0
18.01.2019 09:00:00 0,3 -1,9 5,7 8,2 13 7 - - SSE 1013,7 10 0 0,0
18.01.2019 08:00:00 -0,1 -2,0 - - 5 3 - - SSE 1014,0 10 0 0,0
18.01.2019 07:00:00 -0,1 -2,1 - - 11 6 - - SE 1014,5 10 0 0,0
18.01.2019 06:00:00 -0,2 -2,1 - - 15 8 - - S 1015,1 29 0 0,0
18.01.2019 05:00:00 -1,0 -2,5 - - 9 5 - - SSE 1015,7 22 0 0,0
18.01.2019 04:00:00 -1,8 -3,0 - - 4 2 - - SSW 1016,3 20 0 0,0
18.01.2019 03:00:00 -2,0 -3,0 - - 5 3 - - S 1016,9 19 0 0,0
18.01.2019 02:00:00 -2,6 -3,7 - - 8 4 - - S 1017,3 20 0 0,0
18.01.2019 01:00:00 -2,0 -3,1 - - 8 4 - - SSE 1017,9 18 0 0,0
18.01.2019 00:00:00 -1,4 -2,8 - - 4 2 - - S 1018,2 18 - 0,0
17.01.2019 23:00:00 -1,1 -2,7 - - 8 4 - - SE 1018,4 14 0 0,0
17.01.2019 22:00:00 -0,5 -2,8 - - 8 4 - - SSE 1018,8 19 0 0,0
17.01.2019 21:00:00 -1,0 -2,4 - - 5 3 - - - 1018,8 10 0 0,0
17.01.2019 20:00:00 -0,4 -2,4 - - 4 2 - - - 1018,9 10 0 0,0
17.01.2019 19:00:00 -0,2 -2,5 - - 4 2 - - SSW 1018,2 10 0 0,0
17.01.2019 18:00:00 2,4 -2,4 - - 9 5 - - WNW 1017,9 10 0 0,0
17.01.2019 17:00:00 0,4 -3,4 - - 2 1 - - - 1017,5 10 0 0,0
17.01.2019 16:00:00 3,7 -2,4 - - 9 5 - - NNW 1017,3 10 18 0,0
17.01.2019 15:00:00 4,7 -3,2 - - 16 9 - - NNW 1016,5 10 60 0,0
17.01.2019 14:00:00 5,2 -2,9 - - 22 12 - - NNW 1015,9 10 60 0,0
17.01.2019 13:00:00 5,3 -3,2 - - 26 14 - - NW 1015,5 10 60 0,0
17.01.2019 12:00:00 5,1 -2,4 - - 24 13 - - NNW 1015,0 10 48 0,0
17.01.2019 11:00:00 4,9 -2,1 - - 22 12 - - NNW 1014,3 10 60 0,0
17.01.2019 10:00:00 3,7 -2,9 - - 16 9 - - NNW 1013,4 10 60 0,0
17.01.2019 09:00:00 3,2 -2,9 6,7 8,2 18 10 - - NNW 1012,5 10 0 0,0
17.01.2019 08:00:00 2,5 -2,9 - - 13 7 - - NNW 1011,4 10 0 0,0
17.01.2019 07:00:00 2,0 -3,4 - - 13 7 - - NNW 1010,6 10 0 0,0
17.01.2019 06:00:00 2,9 -2,3 - - 16 9 - - NNW 1009,3 30 0 0,0
17.01.2019 05:00:00 4,4 0,6 - - 26 14 - - NNW 1007,5 40 0 0,0
17.01.2019 04:00:00 4,2 2,4 - - 21 11 46 25 N 1005,7 40 0 0,2
17.01.2019 03:00:00 5,0 2,5 - - 18 10 46 25 NNW 1004,5 35 0 0,4
17.01.2019 02:00:00 5,3 2,5 - - 16 9 - - NW 1003,9 35 0 0,0
17.01.2019 01:00:00 4,3 2,1 - - 8 4 - - WNW 1003,6 26 0 0,2
17.01.2019 00:00:00 4,4 2,3 - - 8 4 - - NW 1002,9 30 - 0,0
16.01.2019 23:00:00 4,2 2,7 - - 8 4 - - W 1002,4 45 0 0,0
16.01.2019 22:00:00 3,7 2,6 - - 8 4 - - WSW 1002,0 45 0 1,6
16.01.2019 21:00:00 3,7 2,3 - - 5 3 - - - 1001,4 10 0 0,6
16.01.2019 20:00:00 4,6 2,5 - - 8 4 - - NW 1001,3 10 0 0,0
16.01.2019 19:00:00 2,9 1,3 - - 4 2 - - - 1001,0 10 0 0,2
16.01.2019 18:00:00 4,9 1,3 - - 8 4 - - WNW 1000,8 10 0 0,0
16.01.2019 17:00:00 5,2 1,6 - - 18 10 - - WSW 1000,9 10 0 0,0
16.01.2019 16:00:00 5,8 1,4 - - 13 7 - - SW 1001,2 10 60 0,0
16.01.2019 15:00:00 7,9 2,6 - - 13 7 - - W 1001,2 10 36 0,0
16.01.2019 14:00:00 7,5 3,3 - - 15 8 - - W 1001,3 10 12 0,0
16.01.2019 13:00:00 6,7 3,5 - - 16 9 - - W 1001,7 10 0 0,0
16.01.2019 12:00:00 6,7 4,5 - - 11 6 - - W 1002,1 10 0 0,0
16.01.2019 11:00:00 6,9 4,3 - - 18 10 - - WNW 1002,2 10 0 0,2
16.01.2019 10:00:00 6,9 4,8 - - 15 8 - - W 1002,2 10 0 0,0
16.01.2019 09:00:00 7,0 5,6 7,2 8,2 11 6 - - W 1002,1 10 0 1,0
16.01.2019 08:00:00 7,7 5,9 - - 21 11 46 25 NW 1002,0 7 0 1,8
16.01.2019 07:00:00 9,0 6,5 - - 13 7 - - SW 1001,9 10 0 0,0
16.01.2019 06:00:00 9,3 6,3 - - 15 8 - - S 1002,3 40 0 0,0
16.01.2019 05:00:00 9,6 6,5 - - 16 9 - - SSW 1003,4 27 0 0,0
16.01.2019 04:00:00 9,6 6,1 - - 18 10 - - SW 1004,4 45 0 0,0
16.01.2019 03:00:00 10,1 6,1 - - 24 13 - - SW 1005,5 35 0 0,0
16.01.2019 02:00:00 10,0 6,1 - - 26 14 46 25 SW 1006,3 50 0 0,0
16.01.2019 01:00:00 9,7 6,7 - - 28 15 - - SW 1007,1 40 0 0,0
16.01.2019 00:00:00 9,6 6,6 - - 22 12 - - SSW 1007,9 50 - 0,0
15.01.2019 23:00:00 9,3 6,4 - - 18 10 - - SW 1008,9 50 0 0,0
15.01.2019 22:00:00 9,4 5,8 - - 11 6 - - WSW 1009,9 50 0 0,0
15.01.2019 21:00:00 9,4 6,0 - - 24 13 - - SW 1010,7 10 0 0,0
15.01.2019 20:00:00 9,0 6,3 - - 18 10 - - SW 1011,4 10 0 0,0
15.01.2019 19:00:00 9,8 6,1 - - 28 15 - - WSW 1012,3 10 0 0,0
15.01.2019 18:00:00 9,7 6,0 - - 24 13 - - WSW 1012,8 10 0 0,0
15.01.2019 17:00:00 9,5 5,8 - - 21 11 - - WSW 1013,2 10 0 0,0
15.01.2019 16:00:00 9,5 5,7 - - 9 5 - - - 1013,8 10 0 0,0
15.01.2019 15:00:00 10,5 5,4 - - 2 1 - - - 1014,5 10 0 0,0
15.01.2019 14:00:00 10,1 5,8 - - 13 7 - - WSW 1015,3 10 0 0,0
15.01.2019 13:00:00 10,4 4,3 - - 15 8 - - WSW 1016,1 10 0 0,0
15.01.2019 12:00:00 10,2 5,0 - - 16 9 - - SW 1016,9 10 12 0,0
15.01.2019 11:00:00 10,2 5,1 - - 15 8 - - WSW 1017,5 10 24 0,0
15.01.2019 10:00:00 9,6 5,4 - - 18 10 - - SW 1017,8 10 48 0,0
15.01.2019 09:00:00 8,3 3,8 7,0 8,0 22 12 - - WSW 1017,5 10 0 0,0
15.01.2019 08:00:00 8,4 3,9 - - 24 13 - - WSW 1017,2 10 0 0,0
15.01.2019 07:00:00 8,8 4,9 - - 18 10 - - SW 1017,4 10 0 0,0
15.01.2019 06:00:00 9,1 4,8 - - 15 8 - - SW 1017,8 40 0 0,0
15.01.2019 05:00:00 9,0 4,4 - - 13 7 - - WSW 1018,2 50 0 0,0
15.01.2019 04:00:00 9,1 4,8 - - 9 5 - - SW 1018,8 45 0 0,0
15.01.2019 03:00:00 9,0 5,2 - - 8 4 - - W 1019,7 40 0 0,0
15.01.2019 02:00:00 8,8 5,3 - - 13 7 - - WSW 1020,0 50 0 0,0
15.01.2019 01:00:00 7,3 4,9 - - 8 4 - - WSW 1020,7 45 0 0,0
15.01.2019 00:00:00 7,3 4,6 - - 21 11 - - WSW 1021,0 35 - 0,0
14.01.2019 23:00:00 7,2 3,9 - - 22 12 - - WSW 1021,3 25 0 0,0
14.01.2019 22:00:00 7,6 3,3 - - 9 5 - - WSW 1021,8 25 0 0,0
14.01.2019 21:00:00 6,8 3,0 - - 9 5 - - WSW 1022,0 10 0 0,0
14.01.2019 20:00:00 5,1 2,4 - - 11 6 - - SSW 1022,2 10 0 0,0
14.01.2019 19:00:00 7,5 3,3 - - 13 7 - - WSW 1022,3 10 0 0,0
14.01.2019 18:00:00 7,6 3,8 - - 13 7 - - W 1022,5 24 0 0,0
14.01.2019 17:00:00 8,1 4,2 - - 13 7 - - W 1022,3 10 0 0,0
14.01.2019 16:00:00 8,1 5,0 - - 11 6 - - WNW 1022,3 10 0 0,0
14.01.2019 15:00:00 8,5 4,7 - - 11 6 - - WNW 1022,4 10 0 0,0
14.01.2019 14:00:00 9,0 3,9 - - 21 11 - - NW 1022,1 10 0 0,0
14.01.2019 13:00:00 8,8 4,0 - - 24 13 - - NW 1022,1 10 12 0,0
14.01.2019 12:00:00 9,3 4,0 - - 28 15 - - NW 1021,9 10 48 0,0
14.01.2019 11:00:00 8,7 3,4 - - 21 11 - - NW 1022,0 10 0 0,0
14.01.2019 10:00:00 8,5 3,3 - - 22 12 - - NW 1021,8 10 6 0,0
14.01.2019 09:00:00 8,1 3,3 7,2 8,0 24 13 - - NW 1020,7 10 0 0,0
14.01.2019 08:00:00 8,1 3,6 - - 15 8 - - NW 1020,5 10 0 0,0
14.01.2019 07:00:00 8,1 4,0 - - 26 14 - - NW 1019,6 10 0 0,0
14.01.2019 06:00:00 8,2 4,3 - - 21 11 - - WNW 1019,3 18 0 0,2
14.01.2019 05:00:00 8,4 4,5 - - 22 12 - - NW 1018,8 16 0 0,0
14.01.2019 04:00:00 8,4 4,7 - - 21 11 - - NW 1018,6 14 0 0,0
14.01.2019 03:00:00 8,1 5,0 - - 18 10 48 26 NW 1018,2 13 0 0,2
14.01.2019 02:00:00 8,5 4,2 - - 26 14 - - WNW 1017,4 16 0 0,0
14.01.2019 01:00:00 8,5 4,0 - - 26 14 52 28 WNW 1016,5 17 0 0,0
14.01.2019 00:00:00 8,7 4,0 - - 24 13 46 25 WNW 1016,5 14 - 0,0
13.01.2019 23:00:00 8,9 3,4 - - 22 12 - - NW 1015,5 16 0 0,0
13.01.2019 22:00:00 9,0 3,7 - - 28 15 57 31 NW 1014,9 14 0 0,0
13.01.2019 21:00:00 9,3 3,2 - - 31 17 55 30 WNW 1014,2 16 0 0,0
13.01.2019 20:00:00 9,4 3,6 - - 28 15 52 28 WNW 1014,1 17 0 0,0
13.01.2019 19:00:00 9,5 4,2 - - 39 21 59 32 NW 1013,5 10 0 0,0
13.01.2019 18:00:00 9,6 3,5 - - 35 19 57 31 NW 1013,2 10 0 0,0
13.01.2019 17:00:00 9,8 6,1 - - 28 15 61 33 WNW 1012,8 10 0 0,0
13.01.2019 16:00:00 10,6 7,5 - - 28 15 68 37 WNW 1012,1 10 0 0,0
13.01.2019 15:00:00 11,8 6,3 - - 37 20 67 36 WNW 1011,5 10 12 0,0
13.01.2019 14:00:00 12,1 7,0 - - 35 19 74 40 WNW 1011,7 10 54 0,0
13.01.2019 13:00:00 12,1 7,5 - - 35 19 67 36 WNW 1011,9 10 42 0,0
13.01.2019 12:00:00 12,0 8,1 - - 28 15 65 35 NW 1011,7 10 42 0,0
13.01.2019 11:00:00 11,4 7,9 - - 34 18 68 37 WNW 1012,8 10 12 0,0
13.01.2019 10:00:00 11,1 7,3 - - 26 14 55 30 WNW 1013,2 10 0 0,0
13.01.2019 09:00:00 10,9 7,4 7,0 7,9 29 16 57 31 WNW 1013,5 10 0 0,0

tt = temperature
td = dewpoint
tt -20cm = temperature -20cm
tt -100cm = temperature -100cm
ff = wind speed
fx = gusts
dd = wind direction
ppp = reduced air pressure
vv = visibility
sd = sunshine duration
rr = precipitation

Next stations